{"data":{"norad_id":37388,"intl_designator":"2011-015B","name":"YOUTHSAT","alt_names":[],"object_type":"PAYLOAD","status":"ACTIVE","operator":null,"country":"IND","launch_date":"2011-04-20","launch_site_code":"SRILR","launch_vehicle":null,"mission":null,"orbit_class":"UNKNOWN","rcs_meters":0.688,"size_class":null,"mass_kg":null,"dimensions":null,"purposes":[],"wikipedia_slug":null,"has_3d_model":false,"image_url":null,"decayed_at":null,"tle_current":{"epoch":"2026-09-19T18:36:29.281824Z","epoch_age_seconds":88395,"freshness":"FRESH","line1":"1 37388U 11015B   26262.77533891  .00000121  00000+0  68296-4 0  9996","line2":"2 37388  98.3810 232.6179 0015672  66.0208  53.0677 14.25662229801111","mean_motion":14.25662229,"eccentricity":0.0015672,"inclination_deg":98.381,"raan_deg":232.6179,"arg_perigee_deg":66.0208,"mean_anomaly_deg":53.0677,"bstar":6.8296e-5,"rev_number":80111,"period_min":101.00569200112,"perigee_km":795.00759421329,"apogee_km":817.52639008628,"semimajor_km":7184.4039921498,"source":"CELESTRAK","updated_at":"2026-09-20T09:00:13.800112Z"}}}